Other Public Products
Issued by NWS Grand Forks, ND

Home | Current Version | Previous Version | Text Only | Print | Product List | Glossary Off
Versions: 1 2 3 4 5 6 7 8 9 10 11 12 13 14 15 16 17 18 19 20 21 22 23 24 25 26 27 28 29 30 31 32 33 34 35 36 37 38 39 40 41 42 43 44 45 46 47 48 49 50

000
FPUS83 KFGF 221610
OPUFGF
PRAIRIE TO PINES WEATHER ROUNDUP
NATIONAL WEATHER SERVICE EASTERN NORTH DAKOTA/GRAND FORKS ND
1100 AM CDT MON MAY 22 2017

 **SATELLITE DATA USED TO AUGMENT SKY COVER AT AUTOMATED STATIONS**
 *****  WEATHER ACROSS EASTERN NORTH DAKOTA  *****

CITY           SKY/WX    TMP DP  RH WIND       PRES   REMARKS
GRAND FORKS    CLOUDY    53  43  68 NW16G23   29.84S
GRAND FORKS AF CLOUDY    53  42  68 N14       29.85S
GRAND CITY NWS NOT AVBL
BUXTON         NOT AVBL
DEVILS LAKE    PTSUNNY   53  39  59 N16G23    29.91S
FARGO          PTSUNNY   58  45  62 NW18      29.84F
WAHPETON ARPT  FAIR      55  41  58 NW15G21   29.86S
$$

 *****  WEATHER ACROSS CENTRAL AND WESTERN NORTH DAKOTA  *****

CITY           SKY/WX    TMP DP  RH WIND       PRES   REMARKS
JAMESTOWN      FAIR      57  41  55 N18G29    29.88F
BISMARCK       FAIR      59  37  44 N10       29.96F
MINOT          CLOUDY    56  36  47 N15G29    29.98S
MINOT AFB      PTSUNNY   57  35  44 N15       29.98S
GARRISON         N/A     57  35  43 NE14G23   29.98S
WILLISTON      FAIR      62  37  39 N12       30.05R
DICKINSON      FAIR      55  42  61 N12       29.99S
HETTINGER      FAIR      56  42  59 N20       30.00R
$$

 *****  OTHER OBSERVATIONS NORTHEAST NORTH DAKOTA  *****

CITY           SKY/WX    TMP DP  RH WIND       PRES   REMARKS
WALHALLA       NOT AVBL
LANGDON        CLOUDY    52  43  71 N22G29    29.88S
CAVALIER       CLOUDY    52  43  71 N17G28    29.86R
GRAFTON        CLOUDY    50  45  81 N17       29.86S
CANDO          NOT AVBL
FORT TOTTEN    NOT AVBL
ROLLA          PTSUNNY   52  37  58 N25G36    29.94S
RUGBY          NOT AVBL
 ***** THE ABOVE OBSERVATIONS ARE NON NWS ARE NOT QUALITY
        CONTROLLED AND MAY MIS-REPORT RAIN FOR SNOW...
$$

 *****  OTHER OBSERVATIONS SOUTHEAST NORTH DAKOTA *****

CITY           SKY/WX    TMP DP  RH WIND       PRES   REMARKS
COOPERSTOWN    PTSUNNY   54  43  66 N20       29.89R
VALLEY CITY    NOT AVBL
OAKES          NOT AVBL
GWINNER        SUNNY     55  45  67 MISG      29.89R
BUFFALO        NOT AVBL
WYNDMERE         N/A     55  45  67 W10         N/A
 ***** THE ABOVE OBSERVATIONS ARE NON NWS ARE NOT QUALITY
       CONTROLLED AND MAY MIS-REPORT RAIN FOR SNOW...
$$

  *****  WEATHER ACROSS NORTHERN MINNESOTA  *****

CITY           SKY/WX    TMP DP  RH WIND       PRES   REMARKS
FLAG ISLAND    LGT RAIN  45  39  81 N13       29.76S
WARROAD        CLOUDY    46  43  87 NW9       29.78R
ROSEAU         CLOUDY    50  45  81 NW15      29.78S
HALLOCK        PTSUNNY   52  46  82 N18       29.82S
THF RVR FALLS  CLOUDY    48  43  82 N12       29.82R
HALSTAD          N/A     54  45  71 NW20        N/A
FOSSTON        CLOUDY    48  43  81 NW13      29.81S
BAUDETTE       CLOUDY    49  44  83 NW10      29.75S
WASKISH        CLOUDY    48  43  81 NW8       29.76S
CROOKSTON      DRIZZLE   48  45  87 N14       29.84R
$$
  *****  WEATHER ACROSS CENTRAL AND WEST MINNESOTA  *****

CITY           SKY/WX    TMP DP  RH WIND       PRES   REMARKS
BEMIDJI        CLOUDY    49  44  84 W9        29.78S
PARK RAPIDS    PTSUNNY   53  41  63 NW14      29.80S
WADENA         FAIR      54  45  71 W13       29.82F
DETROIT LAKES  PTSUNNY   52  43  71 NW14      29.83S
MOORHEAD       FAIR      55  46  71 NW16      29.85S
FERGUS FALLS   PTSUNNY   54  45  71 NW14      29.84F
ELBOW LAKE     FAIR      53  44  72 NW10      29.86F
MORRIS MN      FAIR      54  43  66 NW9       29.87S
STAPLES        PTSUNNY   54  45  71 W12       29.82F
WHEATON        FAIR      54  43  66 NW8       29.89S
$$
  *****  WEATHER ELSEWHERE ACROSS MINNESOTA  *****

CITY           SKY/WX    TMP DP  RH WIND       PRES   REMARKS
DULUTH         LGT RAIN  48  46  93 W13       29.76R
INTRNTL FALLS  CLOUDY    49  43  80 NW9       29.72S
ELY            DRIZZLE   46  45  93 W8        29.72R
CLOQUET        DRIZZLE   48  45  87 W12G17    29.77S
BRAINERD       LGT RAIN  49  43  80 W12       29.82S
HIBBING        CLOUDY    47  44  90 NW7       29.75R
ALEXANDRIA     FAIR      54  42  64 MISG      29.86F
SAINT CLOUD    PTSUNNY   55  44  66 W13       29.84S
MINNEAPOLIS    FAIR      59  42  53 W17G25    29.86F
$$

  *****  WEATHER ACROSS SOUTH DAKOTA  *****

CITY           SKY/WX    TMP DP  RH WIND       PRES   REMARKS
SIOUX FALLS    PTSUNNY   64  50  60 W9        29.88S
BROOKINGS      FAIR      61  48  62 W8        29.87S
WATERTOWN      FAIR      59  46  62 N7        29.87S
HURON          LGT RAIN  52  48  86 W17       29.90R
SISSETON         N/A     54  42  64 N9        29.88S
ABERDEEN       CLOUDY    58  38  47 N16       29.90F
MITCHELL       PTSUNNY   57  46  66 W16       29.92R
PIERRE         PTSUNNY   55  47  74 NW16      29.92F
MOBRIDGE       LGT RAIN  52  45  77 N10       29.91R
RAPID CITY     FAIR      60  40  47 N24G33    30.01S
$$

  *****  SOME WEATHER IN NEARBY STATES *****

CITY           SKY/WX    TMP DP  RH WIND       PRES   REMARKS
GLASGOW MT     FAIR      60  39  45 N16       30.12R
GREAT FALLS MT CLOUDY    59  40  49 CALM      30.24R
CHEYENNE WY    FAIR      54  29  38 NW22G30   30.17S
SCOTTSBLUFF NE FAIR      54  42  64 NW13      30.10S
OMAHA NE       FAIR      68  48  48 W8        29.94S
DES MOINES IA  PTSUNNY   67  52  58 SW14      29.92S
DAVENPORT IA   FAIR      67  49  52 SW17G25   29.97F
CHICAGO IL     FAIR      63  43  48 SW14G20   29.99F
EAU CLAIRE WI  FAIR      58  43  57 W13       29.83F
LA CROSSE WI   FAIR      63  47  55 SW9       29.88F
$$

  *****  SOME NATIONAL WEATHER *****

CITY           SKY/WX    TMP DP  RH WIND       PRES   REMARKS
LA GUARDIA NY  LGT RAIN  60  54  80 E10       30.09F
RALEIGH NC     CLOUDY    72  66  81 W9G18     30.04R
ATLANTA GA     PTSUNNY   75  68  78 SE3       30.06F
NEW ORLEANS LA CLOUDY    78  68  71 E3        30.04S
OKLAHOMA CITY  PTSUNNY   67  51  56 W8        30.10F
ALBUQUERQUE NM FAIR      68  30  24 N9        30.16F
SALT LAKE CITY FAIR      64  45  49 CALM      30.27S
LOS ANGELES CA CLOUDY    60  58  92 W6        29.98R FOG
BOISE ID       FAIR      66  46  48 CALM      30.21S
SEATTLE WA     PTSUNNY   67  54  63 N6        30.17S
$$

*** WEATHER ACROSS MANITOBA...SASKATCHEWAN AND ONTARIO ***
                ***ONTARIO***

CITY           SKY/WX    TMP DP  RH WIND       PRES   REMARKS
GERALDTON      LGT RAIN  45  43  93 S3        29.66R
THUNDER BAY    PTSUNNY   54  45  71 W9        29.68S
SIOUX LOOKOUT  DRIZZLE   46  46 100 N3        29.68S
TORONTO        PTSUNNY   59  46  63 W17       29.91S
BIG TROUT LK   SUNNY     57  34  41 NE10G18   29.94S
PICKLE LAKE    LGT RAIN  45  43  93 NE16G24   29.72R FOG
DRYDEN         LGT RAIN  45  43  93 N6        29.70S
KENORA         DRIZZLE   45  43  93 N8        29.74S
$$
                *** MANITOBA***

CITY           SKY/WX    TMP DP  RH WIND       PRES   REMARKS
BRANDON        PTSUNNY   57  36  44 N16G24    29.93F
DAUPHIN        PTSUNNY   63  32  31 N20G25    29.96R
ISLAND LAKE    NOT AVBL
PILOT MOUND      N/A     50  37  62 N18G24      N/A
THE PAS        MOSUNNY   57  37  47 N7        30.10R
THOMPSON       NOT AVBL
WINNIPEG       LGT RAIN  48  43  81 N17       29.85F
LYNN LAKE      MOSUNNY   61  37  41 E7        30.19S
CHURCHILL      CLOUDY    30  30 100 NE7       30.31R FOG     WCI  23
GILLAM         MOSUNNY   43  34  70 NE10      30.18S
$$
                ***SASKATCHEWAN***

CITY           SKY/WX    TMP DP  RH WIND       PRES   REMARKS
ESTEVAN        MOSUNNY   61  34  36 NE10      30.03S
KINDERSLEY     MOSUNNY   59  37  44 NE10      30.19S
LLOYDMINSTER   PTSUNNY   61  41  48 E7        30.19F
PRINCE ALBERT  MOSUNNY   64  39  39 CALM      30.15S
REGINA         MOSUNNY   61  36  39 N18G24    30.09R
YORKTON        SUNNY     63  36  36 N16G25    30.04F
N. BATTLEFORD  SUNNY     61  41  48 VRB2      30.20F


USA.gov is the U.S. government's official web portal to all federal, state and local government web resources and services.